Starlink 31675

operational
NORAD ID: 59548 Int'l Des: 2024-074 Owner: SPXS Country: US Constellation: starlink
LEOCIRCULAR

About Starlink 31675

Description loading...

Live Position

Loading 3D Globe...

Upcoming Passes

Altitude History

Altitude vs Time

uPlot chart will show altitude changes over time

Two-Line Element Set

1 59548U 24074Q 25302.90030247 .00000367 00000-0 22872-4 0 9996
2 59548 43.0032 1.9919 0000987 287.6928 72.3816 15.27571579 86011
Epoch: Oct 29, 2025 • Age: 28 hours

Current Status

Altitude 484.0 km
Velocity 7.62 km/s
Sub-Earth Point -6.18°S, 125.93°E
Launch Date Apr 18, 2024
Age 1.5 years
Type internet

Technical Details

Classification Payload
Mass 730.00 kg
Dry Mass 700.00 kg
Total Mass 730.00 kg
Length 0.30 m
Diameter 4.10 m
Span 29.00 m
Shape Box + pan
Manufacturer SPXS
Bus Type Starlink V2M
Phase Status In Orbit
Owner/State SPXS/US

Large Constellations

Loading constellations...